Flag for U.S.A. Weather past 2 weeks in Newport News, Virginia, U.S.A.

Now
35 °F

Overcast.


Feels Like: 27 °F
Forecast: 23 / 41 °F
Wind: 10 mph from Northeast

Location: Newport News / Williamsburg International Airport

Current Time: Feb 27, 2015 at 4:56:35 PM

Latest Report: Feb 27, 2015 at 3:54 PM


Visibility: 8 mi

Pressure: 30.46 "Hg

Humidity: 70%

Dew point: 26 °F

Location of Newport NewsLocation

Historic Weather in Newport News — Graph

°F

Newport News temperature yesterday

Maximum temperature yesterday: 36 °F (at 12:54 PM)
Minimum temperature yesterday: 29 °F (at 10:54 PM)
Average temperature yesterday: 34 °F

Past Weeks' High & Low Weather Summary

 TemperatureHumidityPressure
High50 °F (Feb 14, 1:54 PM)93% (Feb 22, 7:54 AM)30.56 "Hg (Feb 22, 7:54 AM)
Low6 °F (Feb 21, 12:54 AM)17% (Feb 15, 3:54 PM)29.51 "Hg (Feb 14, 7:54 PM)
Average28 °F57%30.12 "Hg
* Reported Feb 12 3:54 PM — Feb 27 3:54 PM, Newport News, Weather by CustomWeather, © 2015

Note: Actual official high and low records may vary slightly from our data, if they occured in-between our weather recording intervals... More about our weather records

Advertising

Newport News weather history for previous 24 hours

 ConditionsComfort  
Time TempWeatherWind HumidityBarometerVisibility
3:54 PM
Fri, Feb 27
35 °FOvercast.10 mph70%30.46 "Hg8 mi
2:54 PM37 °FLight rain. More clouds than sun.8 mph62%30.44 "Hg10 mi
1:54 PM36 °FLight rain. Mostly cloudy.10 mph62%30.41 "Hg10 mi
12:54 PM36 °FLight rain. Overcast.9 mph67%30.40 "Hg10 mi
11:54 AM37 °FLight rain. Overcast.8 mph60%30.39 "Hg10 mi
10:54 AM39 °FLight rain. Overcast.3 mph60%30.38 "Hg10 mi
9:54 AM34 °FSunny.No wind73%30.36 "Hg10 mi
8:54 AM31 °FSunny.No wind92%30.36 "Hg7 mi
8:02 AM27 °FScattered clouds.No wind92%30.33 "Hg7 mi
7:54 AM26 °FLight freezing rain. Ice fog.No wind84%30.33 "Hg2 mi
6:58 AM25 °FIce fog.No wind85%30.29 "Hg2 mi
5:54 AM23 °FPassing clouds.No wind85%30.26 "Hg7 mi
4:54 AM26 °FIce fog.No wind88%30.24 "Hg4 mi
4:02 AM26 °FIce fog.No wind84%30.23 "Hg4 mi
2:54 AM24 °FIce fog.5 mph84%30.20 "Hg2 mi
2:02 AM22 °FIce fog.No wind85%30.20 "Hg1 mi
1:54 AM23 °FIce fog.No wind85%30.20 "Hg0 mi
12:54 AM24 °FIce fog.No wind81%30.18 "Hg0 mi
12:02 AM25 °FLight freezing rain. Ice fog.No wind85%30.16 "Hg0 mi
10:54 PM
Thu, Feb 26
29 °FIce fog.No wind85%30.14 "Hg0 mi
9:54 PM31 °FIce fog.3 mph85%30.12 "Hg3 mi
8:54 PM33 °FOvercast.No wind82%30.10 "Hg7 mi
7:54 PM34 °FOvercast.No wind82%30.10 "Hg8 mi
6:54 PM34 °FOvercast.5 mph79%30.08 "Hg9 mi
5:54 PM34 °FOvercast.5 mph82%30.03 "Hg6 mi
5:01 PM35 °FLight snow. Mostly cloudy.7 mph78%30.00 "Hg4 mi
4:50 PM35 °FLight snow. Cloudy.8 mph78%29.99 "Hg3 mi
Weather by CustomWeather, © 2015

See weather overviewHow to use our weather pages